Location: *
(53.4003°S, 165.3236°W)
Time: 03:02:15
(UTC+00:00)

IDEFIX/ARIANE 42P - Pass Details

Date: 11 December 2023
Orbit: 784 x 800 km, 98.5° (Epoch: 24 February)

Event Time Altitude Azimuth Distance (km) Brightness Sun altitude
Exits shadow 13:18:26 - 313° (NW) 2,529 4.5 -7.5°
Reaches altitude 10° 13:18:58 10° 309° (NW) 2,392 4.5 -7.4°
Maximum altitude 13:22:30 18° 267° (W) 1,910 4.3 -7.2°
Drops below altitude 10° 13:26:04 10° 225° (SW) 2,415 5.2 -6.9°
Sets 13:29:14 0° 205° (SSW) 3,355 6.3 -6.6°
